{"data":{"norad_id":65324,"intl_designator":"2025-189B","name":"STARLINK-34196","alt_names":[],"object_type":"PAYLOAD","status":"ACTIVE","operator":null,"country":"US","launch_date":"2025-08-27","launch_site_code":"AFETR","launch_vehicle":null,"mission":null,"orbit_class":"UNKNOWN","rcs_meters":null,"size_class":null,"mass_kg":null,"dimensions":null,"purposes":["comms"],"wikipedia_slug":null,"has_3d_model":false,"image_url":null,"decayed_at":null,"tle_current":{"epoch":"2026-09-20T20:47:51.007776Z","epoch_age_seconds":85911,"freshness":"FRESH","line1":"1 65324U 25189B   26263.86656259  .00015838  00000+0  52068-3 0  9999","line2":"2 65324  53.1621  18.4385 0001656 135.0063 225.1073 15.31722424 60967","mean_motion":15.31722424,"eccentricity":0.0001656,"inclination_deg":53.1621,"raan_deg":18.4385,"arg_perigee_deg":135.0063,"mean_anomaly_deg":225.1073,"bstar":0.00052068,"rev_number":6096,"period_min":94.011811633568,"perigee_km":469.53898830294,"apogee_km":471.80731422504,"semimajor_km":6848.810151264,"source":"CELESTRAK","updated_at":"2026-09-21T09:00:35.568942Z"}}}